Stations météo

réclame
Mon MeteoGroup
Estepona, Espagne (8463): Température de l'air & dewpoint: 12.01.2020 14:00:00 - 18.01.2020 14:00:00 (CET)Estepona, Espagne (8463): Vitesse du vent & gusts: 12.01.2020 14:00:00 - 18.01.2020 14:00:00 (CET)Estepona, Espagne (8463): Direction du vent: 12.01.2020 14:00:00 - 18.01.2020 14:00:00 (CET)Estepona, Espagne (8463): reduced air pressure: 12.01.2020 14:00:00 - 18.01.2020 14:00:00 (CET)Estepona, Espagne (8463): visibility: 12.01.2020 14:00:00 - 18.01.2020 14:00:00 (CET)Estepona, Espagne (8463): Ensoleillement: 12.01.2020 14:00:00 - 18.01.2020 14:00:00 (CET)Estepona, Espagne (8463): Quantités de précipitations: 12.01.2020 14:00:00 - 18.01.2020 14:00:00 (CET)
Date & Time tt [°C] td [°C] ff [km/h] ff [knt] fx [km/h] fx [knt] dd ppp [hPa] vv [km] sd [min] rr [mm]
18.01.2020 14:00:00 - - - - - - - - - - -
18.01.2020 13:00:00 16,9 9,6 6 3 12 6 E 1032,5 20 0 -
18.01.2020 12:00:00 16,3 9,3 6 3 14 7 ENE 1033,7 20 0 0,0
18.01.2020 11:00:00 15,1 7,6 3 2 10 5 E 1033,6 20 0 0,0
18.01.2020 10:00:00 13,9 6,7 4 2 9 5 W 1033,1 20 0 0,0
18.01.2020 09:00:00 - - - - - - - - - - -
18.01.2020 08:00:00 11,6 6,1 4 2 6 4 NNW 1032,2 20 0 0,0
18.01.2020 07:00:00 11,6 5,5 1 1 8 4 E 1031,8 20 0 -
18.01.2020 06:00:00 11,5 6,2 3 1 5 3 NNW 1031,7 20 0 0,0
18.01.2020 05:00:00 11,5 6,2 1 1 6 3 NNW 1031,7 20 0 0,0
18.01.2020 04:00:00 11,3 5,6 1 1 7 4 N 1031,9 20 0 0,0
18.01.2020 03:00:00 11,5 6,2 5 3 7 4 WNW 1032,2 20 0 0,0
18.01.2020 02:00:00 12,3 6,1 2 1 6 3 W 1032,2 20 0 0,0
18.01.2020 01:00:00 13,5 5,1 3 1 8 5 W 1033,0 20 0 -
18.01.2020 00:00:00 13,2 6,2 3 2 7 4 NNW 1033,1 20 0 0,0
17.01.2020 23:00:00 13,3 6,7 0 0 9 5 N 1033,2 20 0 0,0
17.01.2020 22:00:00 13,8 7,1 3 2 7 4 NW 1033,2 20 0 0,0
17.01.2020 21:00:00 14,5 6,8 3 1 8 5 NW 1032,8 20 0 0,0
17.01.2020 20:00:00 14,4 8,1 2 1 9 5 N 1032,8 20 0 0,0
17.01.2020 19:00:00 16,3 9,3 2 1 15 8 N 1032,1 20 8 -
17.01.2020 18:00:00 16,7 11,0 4 2 9 5 S 1031,5 20 34 0,0
17.01.2020 17:00:00 17,7 10,8 5 3 16 9 ENE 1031,2 20 0 0,0
17.01.2020 16:00:00 18,7 9,2 9 5 32 18 ENE 1031,1 20 0 0,0
17.01.2020 15:00:00 20,7 9,9 15 8 34 18 WSW 1031,2 20 0 0,0
17.01.2020 14:00:00 20,1 10,2 16 9 37 20 WSW 1032,0 20 0 0,0
17.01.2020 13:00:00 19,3 8,9 14 8 29 16 W 1032,9 20 13 -
17.01.2020 12:00:00 - - - - - - - - - - -
17.01.2020 11:00:00 14,6 4,6 4 2 6 4 ENE 1034,2 20 19 0,0
17.01.2020 10:00:00 12,6 4,1 4 2 8 4 ENE 1033,6 20 0 0,0
17.01.2020 09:00:00 11,2 4,8 1 1 8 4 NW 1033,1 20 0 0,0
17.01.2020 08:00:00 9,9 4,6 4 2 7 4 NNW 1032,9 20 0 0,0
17.01.2020 07:00:00 9,5 5,0 3 2 8 4 N 1032,2 20 0 -
17.01.2020 06:00:00 9,9 5,5 4 2 8 4 WNW 1031,8 20 0 0,0
17.01.2020 05:00:00 10,5 6,8 2 1 6 3 NNE 1031,4 20 0 0,0
17.01.2020 04:00:00 10,3 6,7 1 1 8 4 NNE 1032,0 20 0 0,0
17.01.2020 03:00:00 9,9 6,5 3 1 6 3 N 1031,8 20 0 0,0
17.01.2020 02:00:00 10,1 7,0 3 2 7 4 NNW 1031,9 20 0 0,0
17.01.2020 01:00:00 10,3 7,0 3 1 5 3 W 1032,1 18 0 -
17.01.2020 00:00:00 11,3 8,0 3 2 7 4 NNW 1031,9 18 0 0,0
16.01.2020 23:00:00 10,9 7,7 3 1 6 4 NNE 1031,6 13 0 0,0
16.01.2020 22:00:00 11,6 8,4 1 1 5 3 WNW 1031,3 8 0 0,0
16.01.2020 21:00:00 12,6 9,2 3 2 8 4 W 1031,1 10 0 0,0
16.01.2020 20:00:00 13,1 9,3 3 1 7 4 WNW 1030,6 10 0 0,0
16.01.2020 19:00:00 13,6 9,0 4 2 7 4 WSW 1030,3 17 9 -
16.01.2020 18:00:00 15,3 10,0 3 2 6 3 SW 1029,8 20 47 0,0
16.01.2020 17:00:00 16,1 10,2 4 2 8 4 SW 1029,6 20 17 0,0
16.01.2020 16:00:00 16,7 10,0 4 2 9 5 S 1029,4 20 0 0,0
16.01.2020 15:00:00 17,8 9,9 4 2 10 5 SSW 1029,6 20 0 0,0
16.01.2020 14:00:00 17,5 9,7 5 3 9 5 SSE 1030,0 20 0 0,0
16.01.2020 13:00:00 16,3 8,5 4 2 8 4 SE 1030,4 20 11 -
16.01.2020 12:00:00 16,3 8,0 3 1 6 3 SSE 1031,1 20 56 0,0
16.01.2020 11:00:00 15,6 8,4 3 2 6 3 SSW 1030,9 20 47 0,0
16.01.2020 10:00:00 12,6 8,5 1 1 4 2 SW 1030,4 20 0 0,0
16.01.2020 09:00:00 10,9 7,0 1 1 8 4 ESE 1029,6 20 0 0,0
16.01.2020 08:00:00 - - - - - - - - - - -
16.01.2020 07:00:00 11,8 8,1 3 2 7 4 WNW 1028,9 20 0 -
16.01.2020 06:00:00 11,9 8,0 3 1 9 5 NNW 1028,7 20 0 0,0
16.01.2020 05:00:00 12,1 8,3 3 2 8 5 NNW 1029,1 20 0 0,0
16.01.2020 04:00:00 12,2 8,1 3 1 8 5 NW 1029,2 20 0 0,0
16.01.2020 03:00:00 - - - - - - - - - - -
16.01.2020 02:00:00 12,3 7,6 3 1 11 6 NW 1029,4 20 0 0,0
16.01.2020 01:00:00 12,6 7,7 4 2 19 11 N 1029,7 20 0 -
16.01.2020 00:00:00 12,0 3,4 8 4 18 10 NNE 1029,8 20 0 0,0
15.01.2020 23:00:00 10,4 3,4 4 2 8 5 ENE 1029,5 20 0 0,0
15.01.2020 22:00:00 12,1 6,1 3 2 8 4 NNW 1029,1 20 0 0,0
15.01.2020 21:00:00 12,0 6,8 1 1 6 3 SW 1029,3 19 0 0,0
15.01.2020 20:00:00 12,4 7,4 4 2 6 4 NE 1029,1 19 0 0,0
15.01.2020 19:00:00 13,8 7,8 1 1 8 5 W 1028,7 20 8 -
15.01.2020 18:00:00 15,6 8,4 5 3 9 5 W 1028,5 20 42 0,0
15.01.2020 17:00:00 16,5 8,9 4 2 9 5 SW 1028,1 20 13 0,0
15.01.2020 16:00:00 17,2 8,9 3 2 9 5 SSW 1027,8 20 0 0,0
15.01.2020 15:00:00 17,9 8,4 5 3 16 8 SSW 1027,7 20 0 0,0
15.01.2020 14:00:00 18,6 7,4 7 4 16 9 SSW 1028,0 20 0 0,0
15.01.2020 13:00:00 17,1 7,7 9 5 16 9 SSW 1028,5 20 12 -
15.01.2020 12:00:00 - - - - - - - - - - -
15.01.2020 11:00:00 15,6 5,5 3 2 6 4 SE 1028,8 20 47 0,0
15.01.2020 10:00:00 12,4 4,3 3 2 7 4 NE 1027,9 20 0 0,0
15.01.2020 09:00:00 9,0 3,4 2 1 7 4 N 1027,5 20 0 0,0
15.01.2020 08:00:00 8,9 3,0 3 2 5 3 NW 1026,9 20 0 0,0
15.01.2020 07:00:00 9,1 2,9 1 1 4 2 NW 1026,2 20 0 -
15.01.2020 06:00:00 10,1 2,9 3 2 7 4 NW 1025,6 20 0 0,0
15.01.2020 05:00:00 9,5 3,2 2 1 5 3 N 1025,7 20 0 0,0
15.01.2020 04:00:00 10,1 3,4 3 1 8 5 N 1025,7 20 0 0,0
15.01.2020 03:00:00 10,5 3,9 4 2 8 4 WNW 1026,0 20 0 0,0
15.01.2020 02:00:00 10,7 3,2 3 1 6 3 W 1025,8 20 0 0,0
15.01.2020 01:00:00 11,0 3,6 3 2 5 3 NNW 1026,2 20 0 -
15.01.2020 00:00:00 11,5 3,8 2 1 - - NNW 1026,2 20 - -
14.01.2020 23:00:00 11,8 3,8 5 3 7 4 WSW 1026,0 20 0 0,0
14.01.2020 22:00:00 11,6 3,4 1 1 7 4 WSW 1025,9 20 0 0,0
14.01.2020 21:00:00 12,7 4,1 5 3 10 5 W 1025,9 20 0 0,0
14.01.2020 20:00:00 14,0 3,4 1 1 18 10 S 1025,7 20 0 0,0
14.01.2020 19:00:00 14,7 3,8 10 5 23 12 W 1025,2 20 2 -
14.01.2020 18:00:00 16,7 3,4 10 5 25 13 WSW 1024,7 20 29 0,0
14.01.2020 17:00:00 18,0 2,3 11 6 27 15 WSW 1024,1 20 9 0,0
14.01.2020 16:00:00 17,8 0,9 8 4 30 16 WSW 1023,7 20 0 0,0
14.01.2020 15:00:00 17,4 3,6 15 8 31 17 WSW 1024,1 20 0 0,0
14.01.2020 14:00:00 16,7 5,0 19 10 34 19 WSW 1024,8 20 0 0,0
14.01.2020 13:00:00 16,4 5,3 15 8 37 20 W 1025,8 20 16 -
14.01.2020 12:00:00 14,7 7,0 3 2 14 8 SSW 1026,6 20 48 0,0
14.01.2020 11:00:00 12,7 7,4 5 3 11 6 E 1026,6 20 16 0,0
14.01.2020 10:00:00 11,0 7,1 1 1 6 3 E 1026,1 20 0 0,0
14.01.2020 09:00:00 8,9 5,8 2 1 7 4 NE 1025,3 20 0 0,0
14.01.2020 08:00:00 8,8 5,8 2 1 8 5 NNE 1025,2 20 0 0,0
14.01.2020 07:00:00 9,0 5,9 2 1 8 5 N 1024,8 20 0 -
14.01.2020 06:00:00 9,2 5,9 1 1 6 3 NW 1024,4 20 0 0,0
14.01.2020 05:00:00 9,6 6,2 3 2 7 4 N 1024,4 20 0 0,0
14.01.2020 04:00:00 9,2 5,8 1 1 5 3 W 1024,8 20 0 0,0
14.01.2020 03:00:00 9,6 5,8 1 1 8 4 WNW 1025,1 20 0 0,0
14.01.2020 02:00:00 9,8 5,9 2 1 6 4 N 1025,4 20 0 0,0
14.01.2020 01:00:00 9,9 6,1 2 1 9 5 NW 1025,9 20 0 -
14.01.2020 00:00:00 10,3 6,2 4 2 8 5 NNW 1026,3 20 0 0,0
13.01.2020 23:00:00 10,5 6,1 4 2 6 4 NE 1026,4 20 0 0,0
13.01.2020 22:00:00 12,2 6,7 4 2 11 6 WNW 1026,5 20 0 0,0
13.01.2020 21:00:00 12,4 6,8 4 2 10 6 WNW 1027,1 20 0 0,0
13.01.2020 20:00:00 12,3 6,8 3 2 6 4 WNW 1027,3 20 0 0,0
13.01.2020 19:00:00 12,6 6,4 3 2 8 4 SW 1027,4 20 0 -
13.01.2020 18:00:00 14,3 6,7 4 2 9 5 SSW 1027,0 20 42 0,0
13.01.2020 17:00:00 15,2 6,7 5 3 11 6 SSE 1027,0 20 14 0,0
13.01.2020 16:00:00 15,5 6,7 5 3 11 6 S 1027,3 20 0 0,0
13.01.2020 15:00:00 16,4 6,2 5 3 13 7 SSE 1027,4 20 0 0,0
13.01.2020 14:00:00 16,5 7,1 8 4 16 9 SE 1028,1 20 0 0,0
13.01.2020 13:00:00 15,9 7,1 9 5 17 9 E 1029,2 20 17 -
13.01.2020 12:00:00 - - - - - - - - - - -
13.01.2020 11:00:00 15,6 7,1 10 6 19 10 E 1030,1 20 43 0,0
13.01.2020 10:00:00 13,5 7,0 7 4 14 7 NE 1029,7 20 0 0,0
13.01.2020 09:00:00 10,5 5,9 2 1 10 5 N 1029,2 20 0 0,0
13.01.2020 08:00:00 10,5 6,1 2 1 8 4 N 1029,2 20 0 0,0
13.01.2020 07:00:00 10,8 6,5 2 1 8 4 NNW 1029,1 20 0 -
13.01.2020 06:00:00 11,0 6,7 2 1 12 6 NNW 1029,1 20 0 0,0
13.01.2020 05:00:00 11,1 6,7 3 1 11 6 NNW 1029,4 20 0 0,0
13.01.2020 04:00:00 11,0 6,1 3 1 11 6 NNW 1029,8 20 0 0,0
13.01.2020 03:00:00 10,8 5,6 4 2 11 6 NNE 1030,0 20 0 0,0
13.01.2020 02:00:00 10,9 5,6 2 1 8 4 NW 1030,2 20 0 0,0
13.01.2020 01:00:00 11,1 6,8 2 1 7 4 WNW 1030,7 20 0 -
13.01.2020 00:00:00 11,4 7,3 2 1 8 4 W 1031,3 20 0 0,0
12.01.2020 23:00:00 11,4 7,3 2 1 7 4 WNW 1031,2 20 0 0,0
12.01.2020 22:00:00 11,6 7,6 3 1 7 4 NW 1031,0 20 0 0,0
12.01.2020 21:00:00 12,0 7,6 2 1 5 3 NW 1031,0 20 0 0,0
12.01.2020 20:00:00 12,3 7,6 1 1 6 3 WNW 1030,9 19 0 0,0
12.01.2020 19:00:00 13,0 7,4 2 1 6 3 WSW 1030,5 20 7 -
12.01.2020 18:00:00 14,6 7,8 3 2 9 5 SSW 1030,1 19 50 0,0
12.01.2020 17:00:00 15,4 8,1 5 3 10 5 S 1030,1 20 11 0,0
12.01.2020 16:00:00 16,1 8,4 5 3 10 5 S 1030,3 20 0 0,0
12.01.2020 15:00:00 16,8 8,3 4 2 10 5 SSE 1030,3 20 0 0,0
12.01.2020 14:00:00 17,5 8,7 5 3 11 6 S 1031,1 20 0 0,0

tt = Température de l'air
td = dewpoint
ff = Vitesse du vent
fx = gusts
dd = Direction du vent
ppp = reduced air pressure
vv = visibility
sd = Ensoleillement
rr = Quantités de précipitations

stations d'obs. à proximité